KC9VAF Weather Reports


Display with metric or nautical units.
time (UTC)temp
F
wind
direction
speed
MPH
gust
MPH
rain 1hr
in
rain 24hr
in
rain mn
in
humidity
%
barometer
mb
20260508165639 64 144 1.0 1.0 0.00 0.00 0.00 32 1010.2
20260508165136 64 151 3.0 3.0 0.00 0.00 0.00 28 1010.5
20260508164633 64 80 1.0 2.0 0.00 0.00 0.00 33 1010.5
20260508164130 64 115 0.0 1.0 0.00 0.00 0.00 27 1010.6
20260508163627 64 146 1.0 2.0 0.00 0.00 0.00 30 1010.7
20260508163124 64 75 1.0 2.0 0.00 0.00 0.00 31 1011.0
20260508162620 64 182 3.0 3.0 0.00 0.00 0.00 31 1010.8
20260508162118 64 114 2.0 2.0 0.00 0.00 0.00 31 1011.0
20260508161614 63 79 1.0 1.0 0.00 0.00 0.00 35 1010.9
20260508161112 63 130 2.0 3.0 0.00 0.00 0.00 34 1011.3
20260508160610 62 177 5.0 6.0 0.00 0.00 0.00 31 1011.1
20260508160107 61 90 2.0 2.0 0.00 0.00 0.00 36 1011.4
20260508155604 61 210 5.0 7.0 0.00 0.00 0.00 34 1011.3
20260508155101 60 88 1.0 1.0 0.00 0.00 0.00 34 1011.5
20260508154558 61 1 2.0 3.0 0.00 0.00 0.00 34 1011.4
20260508154055 60 174 3.0 5.0 0.00 0.00 0.00 35 1011.3
20260508153552 60 85 4.0 5.0 0.00 0.00 0.00 36 1011.4
20260508153048 60 94 1.0 1.0 0.00 0.00 0.00 36 1011.5
20260508152546 59 147 2.0 3.0 0.00 0.00 0.00 38 1011.4
20260508152040 60 101 2.0 3.0 0.00 0.00 0.00 39 1011.5
20260508151537 60 224 2.0 2.0 0.00 0.00 0.00 40 1011.3
20260508151034 59 88 1.0 1.0 0.00 0.00 0.00 41 1011.6
20260508150532 59 136 4.0 5.0 0.00 0.00 0.00 41 1011.6
20260508150027 59 158 5.0 5.0 0.00 0.00 0.00 43 1011.7
20260508145524 59 68 3.0 3.0 0.00 0.00 0.00 44 1011.5
20260508145020 59 87 3.0 3.0 0.00 0.00 0.00 47 1011.7
20260508144518 58 103 2.0 2.0 0.00 0.00 0.00 48 1011.5
20260508144016 57 158 3.0 3.0 0.00 0.00 0.00 49 1011.4
20260508143513 57 94 1.0 2.0 0.00 0.00 0.00 54 1011.5
20260508143009 57 37 2.0 3.0 0.00 0.00 0.00 55 1011.5
20260508142507 56 169 3.0 3.0 0.00 0.00 0.00 57 1011.5
20260508142003 55 131 3.0 3.0 0.00 0.00 0.00 60 1011.7
20260508141459 54 86 0.0 1.0 0.00 0.00 0.00 64 1011.7
20260508140957 53 111 2.0 2.0 0.00 0.00 0.00 64 1011.8
20260508140454 53 97 1.0 1.0 0.00 0.00 0.00 68 1011.7
20260508135949 52 127 1.0 2.0 0.00 0.00 0.00 68 1011.7
20260508135446 51 190 4.0 5.0 0.00 0.00 0.00 69 1011.8
20260508134943 51 149 3.0 3.0 0.00 0.00 0.00 70 1012.0
20260508134439 50 135 2.0 3.0 0.00 0.00 0.00 71 1012.1
20260508133936 50 188 4.0 6.0 0.00 0.00 0.00 72 1011.9
20260508133434 49 102 1.0 2.0 0.00 0.00 0.00 74 1012.1
20260508132930 49 87 2.0 2.0 0.00 0.00 0.00 74 1012.1
20260508132428 48 156 2.0 2.0 0.00 0.00 0.00 75 1012.0
20260508131925 48 116 1.0 2.0 0.00 0.00 0.00 76 1012.2
20260508131420 48 87 0.0 1.0 0.00 0.00 0.00 76 1012.2
20260508130917 48 84 1.0 1.0 0.00 0.00 0.00 76 1012.1
20260508130414 47 137 1.0 1.0 0.00 0.00 0.00 77 1012.1
20260508125910 46 139 1.0 2.0 0.00 0.00 0.00 79 1012.1
20260508125406 45 104 2.0 2.0 0.00 0.00 0.00 79 1012.2
20260508124904 44 122 1.0 2.0 0.00 0.00 0.00 81 1012.1
20260508124401 44 122 1.0 2.0 0.00 0.00 0.00 82 1012.0
20260508123859 43 152 1.0 1.0 0.00 0.00 0.00 83 1012.2
20260508123358 42 83 0.0 0.0 0.00 0.00 0.00 85 1012.2
20260508122853 41 84 0.0 0.0 0.00 0.00 0.00 86 1012.3
20260508122350 41 171 1.0 2.0 0.00 0.00 0.00 86 1012.2
20260508121848 40 93 0.0 0.0 0.00 0.00 0.00 87 1012.2
20260508121346 39 117 1.0 1.0 0.00 0.00 0.00 89 1012.1
20260508120843 39 86 0.0 0.0 0.00 0.00 0.00 91 1012.1
20260508120341 38 84 0.0 0.0 0.00 0.00 0.00 92 1012.1
20260508115838 37 86 0.0 0.0 0.00 0.00 0.00 94 1012.0
20260508115336 37 85 0.0 0.0 0.00 0.00 0.00 94 1012.0
20260508114832 37 86 0.0 0.0 0.00 0.00 0.00 94 1012.0
20260508114329 35 84 0.0 0.0 0.00 0.00 0.00 95 1012.3
20260508113826 35 80 0.0 0.0 0.00 0.00 0.00 95 1011.9
20260508113324 35 64 0.0 0.0 0.00 0.00 0.00 95 1011.9
20260508112820 35 83 0.0 0.0 0.00 0.00 0.00 95 1012.0
20260508112318 35 86 0.0 0.0 0.00 0.00 0.00 95 1012.1
20260508111814 34 85 0.0 0.0 0.00 0.00 0.00 95 1011.9
20260508111311 34 86 0.0 0.0 0.00 0.00 0.00 96 1011.8
20260508110808 33 98 0.0 0.0 0.00 0.00 0.00 96 1012.0
20260508110306 33 88 0.0 0.0 0.00 0.00 0.00 96 1011.8
20260508105805 33 86 0.0 0.0 0.00 0.00 0.00 96 1011.6
20260508105305 33 87 0.0 0.0 0.00 0.00 0.00 96 1011.8
20260508104759 32 86 0.0 0.0 0.00 0.00 0.00 95 1011.7
20260508104256 33 90 0.0 0.0 0.00 0.00 0.00 95 1011.7
20260508103754 33 91 0.0 0.0 0.00 0.00 0.00 96 1011.9
20260508103250 31 85 0.0 0.0 0.00 0.00 0.00 95 1011.7
20260508102748 31 81 0.0 0.0 0.00 0.00 0.00 95 1011.9
20260508102246 32 85 0.0 0.0 0.00 0.00 0.00 95 1011.9
20260508101743 32 86 0.0 0.0 0.00 0.00 0.00 95 1011.9
20260508101240 32 88 0.0 0.0 0.00 0.00 0.00 95 1011.9
20260508100738 32 89 0.0 0.0 0.00 0.00 0.00 95 1012.0
20260508100236 32 86 0.0 0.0 0.00 0.00 0.00 95 1012.0
20260508095731 32 86 0.0 0.0 0.00 0.00 0.00 95 1011.9
20260508095229 32 88 0.0 0.0 0.00 0.00 0.00 95 1011.9
20260508094725 32 88 0.0 0.0 0.00 0.00 0.00 95 1011.7
20260508094223 32 88 0.0 0.0 0.00 0.00 0.00 95 1012.0
20260508093720 31 85 0.0 0.0 0.00 0.00 0.00 95 1012.0
20260508093218 31 85 0.0 0.0 0.00 0.00 0.00 95 1011.9
20260508092714 31 85 0.0 0.0 0.00 0.00 0.00 94 1012.1
20260508092213 32 85 0.0 0.0 0.00 0.00 0.00 94 1011.9
20260508091710 32 86 0.0 0.0 0.00 0.00 0.00 94 1012.1
20260508091207 32 85 0.0 0.0 0.00 0.00 0.00 94 1012.0
20260508090705 32 96 0.0 0.0 0.00 0.00 0.00 94 1012.1
20260508090202 32 98 0.0 0.0 0.00 0.00 0.00 95 1012.1
20260508085657 32 85 0.0 0.0 0.00 0.00 0.00 94 1012.1
20260508085155 32 81 0.0 0.0 0.00 0.00 0.00 94 1012.1
20260508084651 32 81 0.0 0.0 0.00 0.00 0.00 94 1012.1
20260508084149 32 85 0.0 0.0 0.00 0.00 0.00 94 1012.4
20260508083646 32 85 0.0 0.0 0.00 0.00 0.00 94 1012.3
20260508083144 32 85 0.0 0.0 0.00 0.00 0.00 93 1012.2
20260508082638 32 87 0.0 0.0 0.00 0.00 0.00 93 1012.4
20260508082136 33 83 0.0 0.0 0.00 0.00 0.00 93 1012.2
20260508081634 33 88 0.0 0.0 0.00 0.00 0.00 93 1012.2
20260508081130 33 114 0.0 0.0 0.00 0.00 0.00 93 1012.2
20260508080627 33 85 0.0 0.0 0.00 0.00 0.00 93 1012.4
20260508080125 33 80 0.0 0.0 0.00 0.00 0.00 92 1012.2
20260508075621 33 80 0.0 0.0 0.00 0.00 0.00 92 1012.4
20260508075118 33 81 0.0 0.0 0.00 0.00 0.00 92 1012.4
20260508074616 34 85 0.0 0.0 0.00 0.00 0.00 92 1012.3
20260508074113 33 68 0.0 0.0 0.00 0.00 0.00 92 1012.5
20260508073610 33 80 0.0 0.0 0.00 0.00 0.00 92 1012.4
20260508073108 33 81 0.0 0.0 0.00 0.00 0.00 92 1012.5
20260508072603 33 81 0.0 0.0 0.00 0.00 0.00 92 1012.5
20260508072101 34 75 0.0 0.0 0.00 0.00 0.00 92 1012.5
20260508071558 33 85 0.0 0.0 0.00 0.00 0.00 91 1012.8
20260508071056 34 53 1.0 1.0 0.00 0.00 0.00 91 1012.8
20260508070553 34 83 1.0 1.0 0.00 0.00 0.00 91 1012.8
20260508070052 34 62 1.0 1.0 0.00 0.00 0.00 91 1012.9
20260508065549 34 86 0.0 0.0 0.00 0.00 0.00 90 1012.9
20260508065047 34 73 0.0 0.0 0.00 0.00 0.00 91 1012.8
20260508064544 34 82 0.0 0.0 0.00 0.00 0.00 90 1012.8
20260508064042 34 85 0.0 0.0 0.00 0.00 0.00 90 1012.8
20260508063539 34 81 0.0 0.0 0.00 0.00 0.00 89 1013.0
20260508063037 35 88 0.0 0.0 0.00 0.00 0.00 89 1012.9
20260508062534 35 92 0.0 0.0 0.00 0.00 0.00 88 1013.0
20260508062031 35 98 0.0 0.0 0.00 0.00 0.00 88 1013.1
20260508061529 35 83 0.0 0.0 0.00 0.00 0.00 88 1012.9
20260508061025 36 86 0.0 0.0 0.00 0.00 0.00 88 1013.0
20260508060522 36 79 0.0 0.0 0.00 0.00 0.00 87 1012.9
20260508060020 36 82 0.0 0.0 0.00 0.00 0.00 87 1013.2
20260508055515 36 79 0.0 0.0 0.00 0.00 0.00 87 1013.1
20260508055013 36 80 0.0 0.0 0.00 0.00 0.00 86 1013.2
20260508054509 37 81 0.0 0.0 0.00 0.00 0.00 86 1013.2
20260508054006 37 72 0.0 0.0 0.00 0.00 0.00 85 1013.4
20260508053503 37 80 0.0 0.0 0.00 0.00 0.00 85 1013.1
20260508053001 37 86 0.0 0.0 0.00 0.00 0.00 85 1013.4
20260508052458 37 79 0.0 0.0 0.00 0.00 0.00 85 1013.3
20260508051954 37 82 0.0 0.0 0.00 0.00 0.00 85 1013.4
20260508051450 37 79 0.0 0.0 0.00 0.00 0.00 85 1013.1
20260508050946 37 75 0.0 0.0 0.00 0.00 0.00 85 1013.3
20260508050443 37 80 0.0 0.0 0.00 0.00 0.00 85 1013.5
20260508045939 37 80 0.0 0.0 0.00 0.00 0.00 85 1013.4
20260508045437 37 80 0.0 0.0 0.00 0.00 0.00 86 1013.1
20260508044934 37 80 0.0 0.0 0.00 0.00 0.00 85 1013.0
20260508044431 38 78 0.0 0.0 0.00 0.00 0.00 85 1012.8
20260508043926 37 78 0.0 0.0 0.00 0.00 0.00 85 1013.2
20260508043424 37 79 0.0 0.0 0.00 0.00 0.00 86 1012.8
20260508042920 37 76 0.0 0.0 0.00 0.00 0.00 87 1013.0
20260508042418 37 79 0.0 0.0 0.00 0.00 0.00 87 1012.9
20260508041915 37 80 0.0 0.0 0.00 0.00 0.00 86 1012.7
20260508041411 37 70 0.0 1.0 0.00 0.00 0.00 87 1012.8
20260508040907 37 79 0.0 0.0 0.00 0.00 0.00 87 1012.8
20260508040405 37 80 0.0 0.0 0.00 0.00 0.00 87 1012.9
20260508035903 37 80 0.0 0.0 0.00 0.00 0.00 86 1012.8
20260508035400 37 79 0.0 0.0 0.00 0.00 0.00 86 1012.9
20260508034856 37 78 0.0 0.0 0.00 0.00 0.00 86 1012.7
20260508034354 38 78 0.0 0.0 0.00 0.00 0.00 85 1012.4
20260508033850 38 78 0.0 0.0 0.00 0.00 0.00 85 1012.5
20260508033349 38 82 0.0 0.0 0.00 0.00 0.00 85 1012.4
20260508032846 38 80 0.0 0.0 0.00 0.00 0.00 85 1012.4
20260508032343 38 79 0.0 0.0 0.00 0.00 0.00 85 1012.6
20260508031840 37 78 0.0 0.0 0.00 0.00 0.00 85 1012.5
20260508031337 38 77 0.0 0.0 0.00 0.00 0.00 84 1012.5
20260508030833 38 83 0.0 0.0 0.00 0.00 0.00 84 1012.5
20260508030330 38 79 0.0 0.0 0.00 0.00 0.00 83 1012.7
20260508025827 38 78 0.0 0.0 0.00 0.00 0.00 83 1012.4
20260508025324 39 82 0.0 0.0 0.00 0.00 0.00 82 1012.5
20260508024821 39 79 0.0 0.0 0.00 0.00 0.00 82 1012.4
20260508024317 39 79 0.0 0.0 0.00 0.00 0.00 81 1012.2
20260508023814 39 81 0.0 0.0 0.00 0.00 0.00 80 1012.4
20260508023311 39 78 0.0 0.0 0.00 0.00 0.00 80 1012.2
20260508022807 40 85 0.0 0.0 0.00 0.00 0.00 78 1012.1
20260508022306 40 93 2.0 2.0 0.00 0.00 0.00 78 1012.1
20260508021801 40 85 0.0 0.0 0.00 0.00 0.00 77 1012.3
20260508021256 40 85 0.0 0.0 0.00 0.00 0.00 77 1012.1
20260508020753 40 82 0.0 0.0 0.00 0.00 0.00 76 1012.2
20260508020251 40 84 0.0 0.0 0.00 0.00 0.00 75 1012.1
20260508015747 41 82 0.0 0.0 0.00 0.00 0.00 75 1011.9
20260508015245 41 85 0.0 0.0 0.00 0.00 0.00 74 1011.9
20260508014741 41 110 1.0 1.0 0.00 0.00 0.00 73 1012.0
20260508014238 41 77 1.0 1.0 0.00 0.00 0.00 73 1011.9
20260508013734 41 78 1.0 1.0 0.00 0.00 0.00 72 1011.8
20260508013231 42 80 1.0 1.0 0.00 0.00 0.00 72 1011.9
20260508012728 42 81 1.0 1.0 0.00 0.00 0.00 71 1011.7
20260508012225 42 92 1.0 2.0 0.00 0.00 0.00 71 1011.7
20260508011723 42 90 2.0 3.0 0.00 0.00 0.00 70 1011.7
20260508011220 42 107 1.0 2.0 0.00 0.00 0.00 69 1011.8
20260508010717 42 81 1.0 1.0 0.00 0.00 0.00 68 1011.7
20260508010215 43 75 1.0 1.0 0.00 0.00 0.00 67 1011.6
20260508005712 43 81 2.0 2.0 0.00 0.00 0.00 66 1011.4
20260508005208 43 82 2.0 2.0 0.00 0.00 0.00 65 1011.4
20260508004704 43 106 2.0 2.0 0.00 0.00 0.00 66 1011.3
20260508004200 44 79 3.0 5.0 0.00 0.00 0.00 65 1011.1
20260508003657 44 76 1.0 2.0 0.00 0.00 0.00 65 1011.1
20260508003155 44 103 3.0 3.0 0.00 0.00 0.00 64 1011.1
20260508002651 44 79 2.0 2.0 0.00 0.00 0.00 63 1010.9
20260508002149 45 85 1.0 1.0 0.00 0.00 0.00 62 1011.3
20260508001644 45 88 3.0 3.0 0.00 0.00 0.00 61 1011.1
20260508001140 46 88 3.0 3.0 0.00 0.00 0.00 61 1011.4
20260508000636 46 86 1.0 1.0 0.00 0.00 0.00 61 1011.0
20260508000134 46 102 3.0 5.0 0.00 0.00 0.00 62 1011.1
20260507235630 47 62 2.0 3.0 0.00 0.00 0.00 60 1011.1
20260507235128 47 95 3.0 3.0 0.00 0.00 0.00 62 1011.1
20260507234624 47 94 3.0 3.0 0.00 0.00 0.00 66 1011.0
20260507234121 48 92 4.0 5.0 0.00 0.00 0.00 67 1011.1
20260507233618 48 84 3.0 3.0 0.00 0.00 0.00 67 1011.0
20260507233116 48 61 3.0 3.0 0.00 0.00 0.00 66 1011.1
20260507232613 48 87 3.0 3.0 0.00 0.00 0.00 66 1010.9
20260507232110 48 70 5.0 6.0 0.00 0.00 0.00 64 1011.0
20260507231606 48 38 3.0 5.0 0.00 0.00 0.00 64 1011.0
20260507231103 48 86 4.0 5.0 0.00 0.00 0.00 64 1010.9
20260507230559 48 84 1.0 1.0 0.00 0.00 0.00 64 1011.4
20260507230056 49 85 4.0 5.0 0.00 0.00 0.00 65 1011.4
20260507225551 49 58 2.0 2.0 0.00 0.00 0.00 65 1011.3
20260507225048 50 81 2.0 3.0 0.00 0.00 0.00 65 1011.3
20260507224544 50 81 3.0 5.0 0.00 0.00 0.00 65 1011.1
20260507224040 50 64 4.0 5.0 0.00 0.00 0.00 64 1011.3
20260507223537 50 104 2.0 2.0 0.00 0.00 0.00 64 1011.4
20260507223034 51 71 2.0 2.0 0.00 0.00 0.00 62 1011.5
20260507222531 51 150 3.0 5.0 0.00 0.00 0.00 62 1011.4
20260507222027 51 103 4.0 5.0 0.00 0.00 0.00 61 1010.9
20260507221523 50 79 1.0 1.0 0.00 0.00 0.00 61 1011.0
20260507221021 51 93 2.0 2.0 0.00 0.00 0.00 59 1010.9
20260507220518 51 68 1.0 2.0 0.00 0.00 0.00 59 1011.0
20260507220015 51 75 1.0 2.0 0.00 0.00 0.00 58 1011.1
20260507215511 50 111 3.0 3.0 0.00 0.00 0.00 56 1011.3
20260507215009 50 73 2.0 3.0 0.00 0.00 0.00 55 1011.3
20260507214506 51 88 4.0 6.0 0.00 0.00 0.00 53 1011.3
20260507214001 51 127 3.0 8.0 0.00 0.00 0.00 53 1011.1
20260507213458 50 95 3.0 5.0 0.00 0.00 0.00 54 1011.3
20260507212955 50 95 5.0 7.0 0.00 0.00 0.00 53 1011.1
20260507212451 50 193 3.0 5.0 0.00 0.00 0.00 54 1011.4
20260507211948 51 115 5.0 8.0 0.00 0.00 0.00 52 1011.6
20260507211444 50 98 2.0 3.0 0.00 0.00 0.00 52 1011.4
20260507210941 51 73 4.0 8.0 0.00 0.00 0.00 52 1011.4
20260507210438 53 91 2.0 3.0 0.00 0.00 0.00 53 1011.3
20260507205935 52 104 1.0 1.0 0.00 0.00 0.00 54 1011.3
20260507205432 51 90 1.0 2.0 0.00 0.00 0.00 55 1011.4
20260507204928 51 55 6.0 9.0 0.00 0.00 0.00 54 1011.3
20260507204425 50 67 1.0 1.0 0.00 0.00 0.00 56 1011.5
20260507203922 50 78 1.0 2.0 0.00 0.00 0.00 56 1011.5
20260507203420 51 159 2.0 3.0 0.00 0.00 0.00 58 1011.5
20260507202916 50 126 6.0 8.0 0.00 0.00 0.00 58 1011.7
20260507202413 51 92 2.0 3.0 0.00 0.00 0.00 59 1011.9
20260507201908 50 76 3.0 5.0 0.00 0.00 0.00 57 1012.0
20260507201404 48 140 4.0 6.0 0.00 0.00 0.00 62 1012.0
20260507200901 49 114 2.0 2.0 0.00 0.00 0.00 61 1012.3
20260507200357 49 70 2.0 3.0 0.00 0.00 0.00 62 1012.6
20260507195853 49 94 2.0 2.0 0.00 0.00 0.00 66 1012.6
20260507195350 48 82 3.0 3.0 0.00 0.00 0.00 62 1012.8
20260507194848 49 67 3.0 3.0 0.00 0.00 0.00 59 1012.8
20260507194344 48 64 0.0 1.0 0.00 0.00 0.00 55 1012.7
20260507193840 48 70 2.0 2.0 0.00 0.00 0.00 55 1012.8
20260507193338 48 97 1.0 2.0 0.00 0.00 0.00 57 1012.7
20260507192834 48 65 2.0 2.0 0.00 0.00 0.00 58 1012.4
20260507192330 49 82 3.0 3.0 0.00 0.00 0.00 60 1012.2
20260507191827 49 113 3.0 3.0 0.00 0.00 0.00 59 1012.2
20260507191323 48 80 3.0 3.0 0.00 0.00 0.00 59 1012.0
20260507190820 49 63 2.0 3.0 0.00 0.00 0.00 58 1012.2
20260507190318 50 102 2.0 2.0 0.00 0.00 0.00 57 1012.4
20260507185817 50 111 3.0 5.0 0.00 0.00 0.00 61 1012.2
20260507185313 49 79 2.0 3.0 0.00 0.00 0.00 58 1012.6
20260507184811 48 55 3.0 3.0 0.00 0.00 0.00 56 1012.7
20260507184309 48 149 3.0 7.0 0.00 0.00 0.00 57 1012.7
20260507183805 48 85 3.0 6.0 0.00 0.00 0.00 55 1013.0
20260507183302 49 82 3.0 3.0 0.00 0.00 0.00 55 1012.7
20260507182759 48 106 3.0 5.0 0.00 0.00 0.00 56 1012.9
20260507182254 48 90 5.0 8.0 0.00 0.00 0.00 54 1013.0
20260507181751 48 80 2.0 3.0 0.00 0.00 0.00 55 1013.2
20260507181248 49 50 3.0 3.0 0.00 0.00 0.00 56 1013.1
20260507180744 49 77 1.0 2.0 0.00 0.00 0.00 54 1013.2
20260507180241 50 42 2.0 3.0 0.00 0.00 0.00 55 1013.1
20260507175737 49 97 5.0 5.0 0.00 0.00 0.00 55 1013.3
20260507175234 49 99 3.0 3.0 0.00 0.00 0.00 55 1013.3
20260507174731 49 58 3.0 3.0 0.00 0.00 0.00 56 1013.4
20260507174229 51 137 1.0 2.0 0.00 0.00 0.00 54 1013.2
20260507173727 53 74 3.0 6.0 0.00 0.00 0.00 54 1013.2
20260507173223 52 86 3.0 3.0 0.00 0.00 0.00 54 1013.2
20260507172720 52 123 2.0 3.0 0.00 0.00 0.00 55 1013.4
20260507172217 55 102 2.0 2.0 0.00 0.00 0.00 43 1013.3
20260507171716 54 93 1.0 1.0 0.00 0.00 0.00 44 1013.5
20260507171214 54 113 0.0 1.0 0.00 0.00 0.00 44 1013.5
20260507170711 54 188 2.0 5.0 0.00 0.00 0.00 45 1013.6
20260507170208 54 129 2.0 2.0 0.00 0.00 0.00 44 1013.7